Home > Weather > Santa Ana > Past weeks

Flag for El Salvador Past Weather in Santa Ana, El Salvador — Yesterday and Last 2 Weeks

Now
75 °F

Passing clouds.


Feels Like: 75 °F
Forecast: 64 / 89 °F
Wind: No wind

Location: San Salvador / Ilopango

Current Time: Jul 24, 2016 at 10:24:18 PM

Latest Report: Jul 24, 2016 at 9:50 PM


Visibility: N/A

Pressure: 30.01 "Hg (27.85 "Hg at 650m altitude)

Humidity: 89%

Dew Point: 72 °F

Location of Santa AnaLocation

Past Weather in Santa Ana — Graph

°F

Santa Ana Temperature Yesterday

Maximum temperature yesterday: 86 °F (at 11:50 AM)
Minimum temperature yesterday: 68 °F (at 5:50 AM)
Average temperature yesterday: 77 °F

High & Low Weather Summary for the Past Weeks

 TemperatureHumidityPressure
High91 °F (Jul 18, 3:50 PM)100% (Jul 12, 5:50 AM)30.09 "Hg (Jul 12, 5:50 AM)
Low68 °F (Jul 12, 5:50 AM)46% (Jul 11, 2:50 PM)29.92 "Hg (Jul 11, 3:50 PM)
Average78 °F79%30.02 "Hg
* Reported Jul 9 8:50 PM — Jul 24 8:50 PM, Santa Ana, Weather by CustomWeather, © 2016

Note: Actual official high and low records may vary slightly from our data, if they occured in-between our weather recording intervals... More about our weather records

Advertising

Santa Ana Weather History for the Previous 24 Hours

Scroll right to see more
 ConditionsComfort  
Time TempWeatherWind HumidityBarometerVisibility
8:50 PM
Sun, Jul 24
75 °FClear.No wind89%30.01 "Hg10 mi
7:50 PM75 °FPassing clouds.No wind89%29.98 "HgN/A
6:50 PM77 °FPassing clouds.2 mph79%29.98 "HgN/A
5:50 PM81 °FPassing clouds.2 mph79%29.98 "HgN/A
4:50 PM82 °FPassing clouds.6 mph74%29.98 "HgN/A
3:50 PM84 °FPassing clouds.7 mph66%29.98 "HgN/A
1:50 PM86 °FPassing clouds.5 mph59%30.04 "HgN/A
12:50 PM84 °FPassing clouds.9 mph62%30.04 "HgN/A
11:50 AM82 °FPassing clouds.3 mph70%30.04 "HgN/A
10:50 AM79 °FPassing clouds.6 mph79%30.04 "HgN/A
9:50 AM72 °FSunny.3 mph94%30.07 "Hg10 mi
7:50 AM70 °FPartly sunny.No wind100%30.07 "HgN/A
6:50 AM68 °FPassing clouds.2 mph100%30.04 "HgN/A
5:50 AM68 °FPassing clouds.2 mph100%30.04 "HgN/A
11:50 PM
Sat, Jul 23
70 °FPassing clouds.3 mph94%30.07 "HgN/A
10:50 PM70 °FLight rain. Passing clouds.2 mph94%30.09 "HgN/A
Weather by CustomWeather, © 2016

See weather overviewHow to use our weather pages